STARLINK-35236, 66008

Orbit data source: Space-Track

STARLINK-35236, 66008 is a payload satellite owned by SpaceX/Seattle (US) in LEO that was launched on Thu, 16 Oct 2025 UTC via an FALCON 9 launch vehicle from the Air Force Eastern Test Range (AFETR). Payload-class satellites include a variety of spacecraft equipped with specific instruments for various scientific and technological missions. These include communications satellites like Starlink; space stations such as the ISS; scientific satellites like the Hubble; Earth observation satellites from companies like Planet Labs, Umbra, and HawkEye 360; GPS; miniature CubeSats for education and research; and military/defense satellites.

Loading next visibility...
Identifier
66008, 2025-232D
Orbit
LEO
Country
Flag of USUS
Related business
Manufacturer
SpaceX/Seattle
Mission
Operational Commercial Communications
Bus & Motor
STARLINK V2MO, Unknown motor
Mass
575 kg wet, ~530 kg dry
Launch date (UTC)
2025-10-16 (8 months ago)
Launch vehicle
FALCON 9
Launch site
Air Force Eastern Test Range (AFETR)
Object type
Payload
Rocket body
Debris
Shape & HBR
Box + 2 Pan, 17.7 m
Radar Cross Section
36.964 m², Large (>1 m²)

Expand to show TLE details & history
Last TLE update: 23 hours ago

TLE from 23 hours ago
0 STARLINK-35236
1 66008U 25232D   26170.90100686  .00020603  00000-0  61884-3 0  9991
2 66008  53.1609 348.5068 0000993  64.1531 295.9574 15.34419789 39072
Epoch: 2026-06-19T21:37Z
TLE epoch observation values (Epoch: 2026-06-19T21:37:26.992Z)
Latitude
-0.00003°
Longitude
116.02097°
Altitude
463.249 km
Speed
7.636 km/s
True Right ascension
23h 14m 01s
True Declination
0° 00' 00"
Sunlit
Object was in daylight at epoch
Visualization orbit readout
Latitude
Unknown
Longitude
Unknown
Altitude
Unknown
Speed
Unknown
Apparent Right ascension
Unknown
Apparent Declination
Unknown
Sunlit
N/A
Visualization observer readout
Local Sidereal Time
07:24:10
Azimuth
Unknown
Elevation
Unknown
Doppler factor
Unknown
Orbital elements
Apogee altitude
463.58 km
Perigee altitude
462.222 km
Semi-major axis
6,841.038 km
Eccentricity
0.0001
Inclination
53.1609°
RAAN
348.5068°
Arg. of periapsis
64.1531°
True anomaly
295.94717°
Mean anomaly
295.9574°
Eccentric anomaly
295.95228°
Mean motion
3.83584 °/min
Orbital period
93.85 mins
BSTAR
0.00061884
Loading maneuver chart data...
Computing Atmospheric mass density...
Loading historical data...
Loading historical data...
Loading historical data...
Loading historical data...
Loading historical data...
Loading historical data...
Loading historical data...

Documentation

Showing up to 5 results
|